     2              OBSERVATION DATA    G (GPS)             RINEX VERSION / TYPE
ASHTORIN ICS 05 - DEC - 99 18:21                            PGM / RUN BY / DATE
Rover                                                       COMMENT
????                                                        MARKER NAME
                                                            MARKER NUMBER
RLW ICS                                                     OBSERVER / AGENCY
217 ASHTECH Z-XII3 4J00 1C63                                REC # / TYPE / VERS
742 choke ring                                              ANT # / TYPE
 -2325738.0500 -4725163.9200  3586913.2600                  APPROX POSITION XYZ
        2.0000        0.0000        0.0000                  ANTENNA: DELTA H/E/N
     1     1                                                WAVELENGTH FACT L1/2
     7    L1    L2    C1    P1    P2    D1    D2            # / TYPES OF OBSERV
    10.0000                                                 INTERVAL
                                                            LEAP SECONDS
  1980     4    13    18    20   40.000000      GPS         TIME OF FIRST OBS
  1980     4    13    18    39   49.999000      GPS         TIME OF LAST OBS
                                                            END OF HEADER
 80  4 13 18 20 40.0000000  0  4G01G16G19G14                         0.001315807
    -10963.37819     -3537.78459  19860106.181           0.0005   19860115.8785
       769.442         599.565
    -20336.33919         0.000 1  20152704.763           0.000           0.000
      2209.590        1721.758
    -27867.94819         0.000 1  23086002.999           0.000           0.000
      3279.692        2555.604
      9053.60019      2915.27459  19540539.448           0.0005   19540550.4935
      -635.866        -495.480
 80  4 13 18 20 50.0000000  0  6G01G16G22G19G18G14                   0.001312160
    -18648.846 9     -9526.43559  19858643.266    19858644.9115   19858653.3245
       767.883         598.350
    -42409.690 9    -16978.43058  20148506.009           0.0005   20148515.9925
      2205.312        1718.425
     -2021.38219      -434.31758  20061529.471           0.0005   20061544.9935
       143.344         111.697
    -60659.821 9    -25197.30052  23079758.999           0.0005          0.0005
      3278.885        2554.975
    -42196.34219     -9812.01852  22081292.665           0.0005          0.0005
      3265.716        2544.714
     15441.166 9      7892.57959  19541754.671    19541756.5065   19541765.0285
      -641.384        -499.780
 80  4 13 18 21  0.0000000  0  6G01G16G22G19G18G14                   0.001308420
    -26310.630 9    -15496.66249  19857185.659    19857186.8614   19857195.2764
       764.550         595.753
    -64431.830 9    -34138.53548  20144314.815    20144316.2355   20144325.2614
      2199.176        1713.644
     -3415.848 9     -1520.98458  20061265.217    20061266.2714   20061275.5445
       135.586         105.651
    -93435.064 9    -50736.44642  23073522.661           0.0004          0.0004
      3276.186        2552.872
    -74843.141 9    -35251.05842  22075081.614           0.0004          0.0004
      3263.761        2543.190
     21891.708 9     12918.95849  19542982.266    19542984.0684   19542992.5204
      -648.595        -505.399
 80  4 13 18 21 10.0000000  0  6G01G16G22G19G18G14                   0.001304578
    -33946.255 9    -21446.50449  19855733.137    19855733.8774   19855742.2804
       762.510         594.164
    -86399.358 9    -51256.08048  20140135.098    20140135.9524   20140144.9654
      2194.306        1709.849
     -4740.251 9     -2552.99348  20061013.478    20061014.4335   20061023.6064
       129.187         100.665
   -126190.548 9    -76259.94045  23067290.338           0.0004          0.0004
      3274.848        2551.830
   -107478.263 9    -60680.55546  22068872.146           0.0004          0.0004
      3263.235        2542.781
     28406.492 9     17995.40149  19544222.571    19544223.8054   19544232.2284
      -654.400        -509.922
 80  4 13 18 21 20.0000000  0  7G01G16G25G22G19G18G14                0.001300741
    -41550.444 9    -27371.84549  19854286.392    19854286.8604   19854295.2374
       759.502         591.820
   -108307.986 9    -68327.72848  20135966.364    20135966.8554   20135975.8904
      2188.614        1705.414
      6065.71119         0.000 1  23141186.535           0.000           0.000
     -2241.730       -1746.803
     -5989.295 9     -3526.27848  20060776.364    20060776.7674   20060785.9484
       121.753          94.872
   -158921.878 9   -101764.84445  23061062.200           0.0004   23061074.4434
      3272.583        2550.065
   -140098.321 9    -86098.89246  22062665.135    22062667.0824   22062676.5674
      3261.944        2541.775
     34989.982 9     23125.38349  19545475.697    19545476.5934   19545485.0184
      -661.109        -515.150
 80  4 13 18 21 30.0000000  0  7G01G16G25G22G19G18G14                0.001296924
    -49129.873 9    -33277.89549  19852844.247    19852844.5504   19852852.9244
       757.069         589.924
   -130164.410 9    -85358.69848  20131807.447    20131807.6904   20131816.7314
      2183.316        1701.285
     28486.625 9     13690.56052  23145462.002           0.0005          0.0005
     -2242.024       -1747.032
     -7168.864 9     -4445.42948  20060552.190    20060552.3174   20060561.4804
       114.742          89.409
   -191635.407 9   -127255.85545  23054837.104    23054836.5474   23054849.8044
      3270.754        2548.639
   -172710.789 9   -111511.11156  22056459.334    22056458.7234   22056472.3685
      3261.243        2541.228
     41635.088 9     28303.37649  19546740.412    19546741.1224   19546749.5524
      -667.214        -519.907
 80  4 13 18 21 40.0000000  3  2
E11S                                                        MARKER NAME
--> THIS IS THE START OF A NEW SITE <---                    COMMENT
 80  4 13 18 21 40.0000000  0  7G01G16G25G22G19G18G14                0.000098814
    -56677.595 9    -39159.24049  20750785.448    20750785.6354   20750794.0094
       754.031         587.557
   -151955.335 9   -102338.63248  21027038.270    21027038.3964   21027047.4344
      2177.181        1696.505
     50911.630 9     31164.59542  24049107.360           0.0004          0.0004
     -2243.196       -1747.945
     -8272.030 9     -5305.04248  20959719.804    20959719.7294   20959728.9134
       106.978          83.359
   -224315.024 9   -152720.40155  23947995.770    23947995.4524   23948009.0415
      3268.154        2546.613
   -205300.645 9   -136905.80246  22949635.189    22949635.5715   22949645.8634
      3259.748        2540.063
     48343.918 9     33531.02449  20447394.572    20447395.1644   20447403.5954
      -673.888        -525.108
 80  4 13 18 21 50.0000000  0  7G01G16G25G22G19G18G14                0.000095003
    -64202.463 9    -45022.77549  20749353.591    20749353.7114   20749362.0774
       751.322         585.446
   -173694.834 9   -119278.48748  21022901.504    21022901.4974   21022910.5424
      2171.091        1691.759
     73349.810 9     48648.61345  24053377.789           0.0004          0.0004
     -2244.026       -1748.592
     -9301.688 9     -6107.37448  20959523.970    20959523.7914   20959532.9754
        99.278          77.359
   -256982.195 9   -178175.26946  23941779.494    23941779.4385   23941792.5464
      3265.619        2544.638
   -237889.992 9   -162300.10846  22943433.834    22943434.5014   22943443.8604
      3258.476        2539.072
     55117.563 9     38809.18149  20448683.679    20448684.1504   20448692.5814
      -680.484        -530.247
 80  4 13 18 22  0.0000000  0  7G01G16G25G22G19G18G14                0.000091193
    -71704.231 9    -50868.30949  20747926.125    20747926.1864   20747934.5474
       748.866         583.532
   -195377.419 9   -136173.99548  21018775.510    21018775.4364   21018784.4954
      2165.286        1687.236
     95792.161 9     66136.02245  24057648.821           0.0004          0.0004
     -2244.584       -1749.026
    -10258.639 9     -6853.05148  20959341.943    20959341.6834   20959350.8844
        91.903          71.613
   -289627.405 9   -203613.04546  23935567.448    23935568.0474   23935580.5224
      3263.161        2542.723
   -270470.823 9   -187687.67647  22937233.874    22937234.1514   22937244.6754
      3257.519        2538.326
     61953.520 9     44135.89149  20449984.609    20449985.0084   20449993.4374
      -686.901        -535.248
 80  4 13 18 22 10.0000000  0  7G01G16G25G22G19G18G14                0.000087384
    -79182.432 9    -56695.48149  20746503.138    20746503.1514   20746511.4974
       746.967         582.052
   -217003.696 9   -153025.63348  21014660.238    21014660.1074   21014669.1394
      2160.131        1683.219
    118239.189 9     83627.15946  24061920.572           0.0004          0.0004
     -2244.545       -1748.996
    -11143.235 9     -7542.35448  20959173.666    20959173.3574   20959182.5354
        85.124          66.330
   -322248.513 9   -229032.02846  23929359.931    23929360.6904   23929373.0224
      3261.199        2541.194
   -303042.607 9   -213068.28346  22931035.808    22931036.1524   22931046.4904
      3256.993        2537.917
     68852.391 9     49511.62249  20451297.483    20451297.8234   20451306.2514
      -692.640        -539.719
 80  4 13 18 22 20.0000000  0  7G01G16G25G22G19G18G14                0.000083576
    -86639.867 9    -62506.47149  20745084.093    20745084.0634   20745092.4044
       745.121         580.614
   -238576.201 9   -169835.36548  21010555.170    21010555.0144   21010564.0514
      2154.945        1679.178
    140686.675 9    101118.63346  24066192.390           0.0004   24066205.5114
     -2244.351       -1748.845
    -11957.576 9     -8176.90448  20959018.744    20959018.3844   20959027.5674
        78.294          61.008
   -354847.931 9   -254434.10946  23923156.489    23923156.8894   23923169.5254
      3259.195        2539.632
   -335607.952 9   -238443.83746  22924838.739    22924838.8364   22924849.1554
      3256.684        2537.676
     75809.429 9     54932.67949  20452621.414    20452621.7064   20452630.1464
      -698.186        -544.041
 80  4 13 18 22 30.0000000  0  7G01G16G25G22G19G18G14                0.000079769
    -94079.042 9    -68303.23049  20743668.505    20743668.4414   20743676.7784
       743.191         579.110
   -260096.651 9   -186604.53648  21006460.002    21006459.8104   21006468.8364
      2149.661        1675.061
    163131.811 9    118608.27746  24070463.673    24070464.8614   24070477.6634
     -2244.169       -1748.703
    -12703.259 9     -8757.95848  20958876.889    20958876.4824   20958885.6534
        71.285          55.547
   -387426.724 9   -279820.11746  23916956.985    23916957.1374   23916969.8394
      3257.054        2537.964
   -368170.654 9   -263817.35546  22918642.456    22918642.6344   22918652.9934
      3256.409        2537.462
     82822.144 9     60397.12149  20453955.929    20453956.1954   20453964.6344
      -703.872        -548.472
 80  4 13 18 22 40.0000000  0  7G01G16G25G22G19G18G14                0.000075963
   -101496.286 9    -74082.90249  20742257.086    20742256.9894   20742265.3354
       740.540         577.044
   -281561.801 9   -203330.61848  21002375.354    21002375.1274   21002384.1654
      2143.695        1670.412
    185577.840 9    136098.59446  24074735.091    24074736.0534   24074749.7814
     -2244.720       -1749.132
    -13375.129 9     -9281.49448  20958749.086    20958748.6334   20958757.7974
        63.360          49.371
   -419982.120 9   -305187.91346  23910761.955    23910762.0754   23910774.7214
      3254.306        2535.823
   -400728.498 9   -289187.05746  22912446.858    22912446.8814   22912457.4344
      3255.517        2536.766
     89894.401 9     65907.96249  20455301.790    20455302.0054   20455310.4494
      -710.255        -553.445
 80  4 13 18 22 50.0000000  0  7G01G16G25G22G19G18G14                0.000072157
   -108892.476 9    -79846.17049  20740849.666    20740849.5484   20740857.8944
       738.440         575.408
   -302973.009 9   -220014.66648  20998300.965    20998300.7124   20998309.7274
      2138.256        1666.174
    208022.367 9    153587.75256  24079006.203    24079006.2484   24079020.1665
     -2244.465       -1748.934
    -13974.191 9     -9748.29948  20958635.125    20958634.6474   20958643.8124
        56.119          43.729
   -452516.192 9   -330539.09246  23904570.991    23904571.0264   23904583.6924
      3252.204        2534.185
   -433282.618 9   -314553.90046  22906252.017    22906252.0114   22906262.4604
      3255.072        2536.420
     97024.926 9     71464.20249  20456658.724    20456658.9074   20456667.3534
      -716.109        -558.007
 80  4 13 18 23  0.0000000  0  7G01G16G25G22G19G18G14                0.000068352
   -116267.984 9    -85593.31849  20739446.175    20739446.0404   20739454.3834
       736.200         573.662
   -324329.481 9   -236656.06148  20994236.982    20994236.7024   20994245.7314
      2132.567        1661.741
    230463.443 9    171074.22346  24083276.667    24083276.9755   24083290.7284
     -2244.190       -1748.719
    -14500.768 9    -10158.61548  20958534.945    20958534.4494   20958543.6024
        48.694          37.943
   -485028.655 9   -355873.41546  23898384.096    23898384.1254   23898396.8194
      3249.866        2532.363
   -465833.090 9   -339917.84546  22900057.889    22900057.9034   22900068.4634
      3254.548        2536.011
    104213.640 9     77065.78849  20458026.719    20458026.8794   20458035.3214
      -722.108        -562.682
 80  4 13 18 23 10.0000000  0  7G01G16G25G22G19G18G14                0.000064545
   -123621.072 9    -91323.00049  20738046.953    20738046.8064   20738055.1514
       734.459         572.306
   -345629.181 9   -253253.22348  20990183.798    20990183.5074   20990192.5294
      2127.452        1657.755
    252901.182 9    188558.08846  24087546.490    24087547.0134   24087560.4674
     -2243.236       -1747.976
    -14953.211 9    -10511.17048  20958448.866    20958448.3674   20958457.5134
        41.802          32.573
   -517518.080 9   -381189.79046  23892201.564    23892201.6144   23892214.3234
      3248.084        2530.975
   -498379.188 9   -365278.40546  22893864.543    22893864.5234   22893875.1024
      3254.750        2536.169
    111461.922 9     82713.78549  20459406.038    20459406.1854   20459414.6344
      -727.520        -566.899
 80  4 13 18 23 20.0000000  0  7G01G16G25G22G19G18G14                0.000060735
   -130956.025 9    -97038.54949  20736651.173    20736651.0104   20736659.3604
       732.046         570.425
   -366877.611 9   -269810.43348  20986140.361    20986140.0574   20986149.1064
      2121.737        1653.302
    275330.221 9    206035.18446  24091814.684    24091815.2144   24091828.5614
     -2243.005       -1747.796
    -15336.694 9    -10809.98948  20958375.924    20958375.3944   20958384.5404
        34.354          26.769
   -549989.569 9   -406492.20446  23886022.460    23886022.5074   23886035.1574
      3245.708        2529.123
   -530926.855 9   -390640.23646  22887670.967    22887670.9944   22887681.3814
      3254.359        2535.864
    118765.601 9     88404.95449  20460795.911    20460796.0324   20460804.4844
      -733.657        -571.681
 80  4 13 18 23 30.0000000  0  7G01G16G25G22G19G18G14                0.000056922
   -138269.339 9   -102737.23749  20735259.520    20735259.3424   20735267.6844
       730.205         568.991
   -388071.032 9   -286324.77948  20982107.398    20982107.0804   20982116.1204
      2116.520        1649.236
    297753.221 9    223507.56846  24096081.693    24096082.1844   24096095.4704
     -2242.020       -1747.029
    -15647.490 9    -11052.17048  20958316.816    20958316.2644   20958325.4004
        27.358          21.318
   -582440.289 9   -431778.43646  23879847.341    23879847.3544   23879859.9764
      3243.935        2527.742
   -563473.012 9   -416000.79046  22881477.615    22881477.5834   22881488.2244
      3254.413        2535.906
    126127.873 9     94141.77549  20462196.927    20462197.0224   20462205.4834
      -739.223        -576.018
 80  4 13 18 23 40.0000000  0  7G01G16G25G22G19G18G14                0.000053104
   -145564.668 9   -108421.90949  20733871.283    20733871.1004   20733879.4364
       728.880         567.958
   -409212.029 9   -302798.27348  20978084.408    20978084.0994   20978093.1334
      2111.662        1645.451
    320166.237 9    240972.14746  24100346.812    24100347.1834   24100360.5314
     -2240.589       -1745.914
    -15888.740 9    -11240.15448  20958270.927    20958270.3664   20958279.4864
        20.821          16.224
   -614873.468 9   -457050.98546  23873675.505    23873675.5104   23873688.1704
      3242.630        2526.725
   -596019.250 9   -441361.50646  22875284.311    22875284.2474   22875294.8234
      3254.807        2536.213
    133545.149 9     99921.46149  20463608.412    20463608.5044   20463616.9594
      -744.252        -579.937
 80  4 13 18 23 50.0000000  0  7G01G16G25G22G19G18G14                0.000049284
   -152838.816 9   -114090.08349  20732487.071    20732486.8744   20732495.2224
       727.220         566.665
   -430296.570 9   -319227.78148  20974072.156    20974071.8434   20974080.8834
      2106.547        1641.465
    342573.717 9    258432.44346  24104610.883    24104611.1944   24104624.5204
     -2239.606       -1745.148
    -16056.433 9    -11370.82948  20958239.025    20958238.4714   20958247.5974
        13.971          10.886
   -647285.681 9   -482307.18846  23867507.619    23867507.6224   23867520.2854
      3241.144        2525.567
   -628561.267 9   -466718.88746  22869091.717    22869091.6684   22869102.1864
      3254.876        2536.267
    141021.528 9    105747.19449  20465031.136    20465031.2174   20465039.6724
      -749.745        -584.217
 80  4 13 18 24  0.0000000  0  7G01G16G25G22G19G18G14                0.000045459
   -160097.981 9   -119746.57349  20731105.708    20731105.5044   20731113.8484
       725.013         564.945
   -451332.233 9   -335619.20048  20970069.218    20970068.8934   20970077.9214
      2101.015        1637.155
    364968.870 9    275883.12146  24108872.603    24108872.9244   24108886.1904
     -2239.063       -1744.724
    -16157.969 9    -11449.94448  20958219.710    20958219.1504   20958228.2764
         6.717           5.234
   -679685.456 9   -507553.71946  23861342.130    23861342.0734   23861354.7474
      3239.240        2524.083
   -661105.500 9   -492077.96446  22862898.799    22862898.7274   22862909.4014
      3254.406        2535.901
    148551.373 9    111614.59649  20466464.041    20466464.1094   20466472.5654
      -755.842        -588.968
 80  4 13 18 24 10.0000000  0  7G01G16G25G22G19G18G14                0.000041632
   -167334.221 9   -125385.20249  20729728.717    20729728.5114   20729736.8494
       722.522         563.004
   -472312.903 9   -351967.76548  20966076.734    20966076.4094   20966085.4494
      2095.413        1632.789
    387359.186 9    293330.03246  24113133.402    24113133.7444   24113146.9574
     -2238.724       -1744.460
    -16187.169 9    -11472.69848  20958214.156    20958213.5984   20958222.7214
        -0.618          -0.482
   -712066.425 9   -532785.65446  23855180.245    23855180.1654   23855192.7924
      3237.251        2522.533
   -693644.914 9   -517433.37146  22856706.733    22856706.6704   22856717.2184
      3253.717        2535.364
    156143.006 9    117530.14249  20467908.700    20467908.7654   20467917.2164
      -762.198        -593.921
 80  4 13 18 24 20.0000000  0  7G01G16G25G22G19G18G14                0.000037802
   -174548.816 9   -131006.96849  20728355.838    20728355.6234   20728363.9584
       719.931         560.985
   -493241.151 9   -368275.48448  20962094.223    20962093.8904   20962102.9254
      2089.734        1628.364
    409743.841 9    310772.52446  24117393.095    24117393.4144   24117406.6884
     -2238.624       -1744.382
    -16146.876 9    -11441.29648  20958221.844    20958221.2744   20958230.3954
        -7.963          -6.205
   -744431.140 9   -558004.90946  23849021.462    23849021.3784   23849033.9604
      3235.252        2520.976
   -726180.311 9   -542785.59746  22850515.488    22850515.3884   22850525.9704
      3252.873        2534.706
    163794.414 9    123492.26649  20469364.739    20469364.7714   20469373.2454
      -768.546        -598.867
 80  4 13 18 24 30.0000000  0  7G01G16G25G22G19G18G14                0.000033966
   -181743.526 9   -136613.23749  20726986.743    20726986.5194   20726994.8584
       718.000         559.481
   -514117.683 9   -384542.91248  20958121.574    20958121.2164   20958130.2714
      2084.530        1624.309
    432121.237 9    328209.35746  24121651.404    24121651.7314   24121664.9924
     -2237.885       -1743.806
    -16038.495 9    -11356.84448  20958242.477    20958241.9034   20958251.0194
       -14.755         -11.497
   -776782.292 9   -583213.55146  23842865.230    23842865.1134   23842877.7144
      3233.936        2519.950
   -758713.385 9   -568136.00746  22844324.640    22844324.5374   22844335.1654
      3252.736        2534.599
    171503.335 9    129499.20449  20470831.712    20470831.7544   20470840.2064
      -774.261        -603.320
 80  4 13 18 24 40.0000000  0  7G01G16G25G22G19G18G14                0.000030128
   -188913.159 9   -142199.96849  20725622.426    20725622.1944   20725630.5364
       716.204         558.081
   -534935.490 9   -400764.57548  20954160.089    20954159.7184   20954168.7764
      2079.296        1620.231
    454497.520 9    345645.33146  24125909.515    24125909.8104   24125923.0964
     -2237.086       -1743.184
    -15857.167 9    -11215.54948  20958276.985    20958276.4074   20958285.5264
       -21.270         -16.574
   -809114.374 9   -608407.33146  23836712.649    23836712.5274   23836725.1464
      3232.783        2519.052
   -791239.295 9   -593480.86046  22838135.160    22838135.0434   22838145.6264
      3252.709        2534.578
    179275.655 9    135555.54349  20472310.750    20472310.7814   20472319.2424
      -779.957        -607.759
 80  4 13 18 24 50.0000000  0  7G01G16G25G22G19G18G14                0.000026283
   -196066.106 9   -147773.69349  20724261.284    20724261.0364   20724269.3804
       713.767         556.182
   -555702.967 9   -416947.02048  20950208.171    20950207.7994   20950216.8504
      2073.588        1615.783
    476865.075 9    363074.50546  24130165.947    24130166.3004   24130179.5884
     -2236.972       -1743.095
    -15612.184 9    -11024.65248  20958323.624    20958323.0334   20958332.1564
       -28.370         -22.106
   -841437.007 9   -633593.76046  23830561.844    23830561.7224   23830574.3774
      3231.173        2517.797
   -823765.747 9   -618826.12546  22831945.586    22831945.4764   22831956.0454
      3251.974        2534.006
    187103.448 9    141655.10949  20473800.351    20473800.3714   20473808.8264
      -786.209        -612.630
 80  4 13 18 25  0.0000000  0  7G01G16G25G22G19G18G14                0.000022433
   -203195.742 9   -153329.25849  20722904.574    20722904.3174   20722912.6514
       711.720         554.587
   -576414.380 9   -433085.78148  20946266.929    20946266.5424   20946275.5944
      2068.244        1611.619
    499229.284 9    380501.09046  24134421.764    24134422.1814   24134435.4124
     -2236.342       -1742.604
    -15298.619 9    -10780.31548  20958383.301    20958382.7064   20958391.8134
       -34.868         -27.170
   -873744.356 9   -658768.28746  23824413.958    23824413.8224   23824426.4974
      3229.821        2516.744
   -856285.847 9   -644166.41346  22825757.171    22825757.0574   22825767.6944
      3251.605        2533.718
    194992.315 9    147802.26349  20475301.571    20475301.5854   20475310.0344
      -792.025        -617.162
 80  4 13 18 25 10.0000000  0  7G01G16G25G22G19G18G14                0.000018581
   -210303.734 9   -158867.95349  20721551.982    20721551.7184   20721560.0614
       709.597         552.933
   -597070.593 9   -449181.52548  20942336.192    20942335.7944   20942344.8434
      2062.738        1607.328
    521589.063 9    397924.18346  24138676.728    24138677.1334   24138690.3784
     -2235.867       -1742.234
    -14918.196 9    -10483.87848  20958455.706    20958455.1054   20958464.2154
       -41.544         -32.372
   -906036.456 9   -683930.95346  23818268.958    23818268.8004   23818281.4774
      3228.292        2515.552
   -888800.907 9   -669502.85346  22819569.783    22819569.6624   22819580.2274
      3251.180        2533.387
    202941.106 9    153996.11649  20476814.196    20476814.2004   20476822.6554
      -797.990        -621.810
 80  4 13 18 25 20.0000000  0  7G01G16G25G22G19G18G14                0.000014724
   -217391.551 9   -164390.93349  20720203.231    20720202.9634   20720211.3014
       707.983         551.675
   -617673.618 9   -465235.82848  20938415.567    20938415.1624   20938424.2184
      2057.888        1603.549
    543943.718 9    415343.29746  24142930.731    24142931.1134   24142944.3624
     -2235.004       -1741.562
    -14472.041 9    -10136.22448  20958540.616    20958540.0124   20958549.1294
       -47.734         -37.195
   -938314.524 8   -709082.68245  23812126.599    23812126.4634   23812139.1044
      3227.286        2514.768
   -921312.916 9   -694836.83146  22813382.909    22813382.7604   22813393.4064
      3251.224        2533.421
    210947.919 9    160235.17749  20478337.875    20478337.8574   20478346.3154
      -803.348        -625.985
 80  4 13 18 25 30.0000000  0  7G01G16G25G22G19G18G14                0.000010864
   -224459.256 9   -169898.23849  20718858.309    20718858.0294   20718866.3684
       705.313         549.595
   -638224.520 9   -481249.51448  20934504.871    20934504.4514   20934513.5024
      2052.020        1598.977
    566293.729 9    432758.79246  24147183.849    24147184.2114   24147197.4264
     -2235.266       -1741.766
    -13960.232 9     -9737.40848  20958638.021    20958637.3954   20958646.5204
       -54.946         -42.815
   -970578.831 8   -734223.68046  23805986.866    23805986.7304   23805999.3654
      3225.268        2513.196
   -953821.078 9   -720167.87946  22807196.881    22807196.7324   22807207.3004
      3250.190        2532.616
    219012.208 9    166519.02749  20479872.483    20479872.4614   20479880.9234
      -809.759        -630.981
 80  4 13 18 25 40.0000000  0  7G01G16G25G22G19G18G14                0.000007003
   -231505.672 9   -175388.95949  20717517.428    20717517.1394   20717525.4814
       703.349         548.064
   -658720.738 9   -497220.59548  20930604.585    20930604.1544   20930613.2104
      2046.596        1594.750
    588641.808 9    450172.79245  24151436.595    24151436.9284   24151450.1664
     -2234.948       -1741.518
    -13379.919 9     -9285.22048  20958748.467    20958747.8274   20958756.9504
       -61.810         -48.164
  -1002827.306 8   -759352.32446  23799850.144    23799849.9974   23799862.6924
      3223.760        2512.021
   -986323.308 9   -745494.24246  22801011.860    22801011.7004   22801022.2914
      3249.589        2532.147
    227135.434 9    172848.79749  20481418.304    20481418.2714   20481426.7304
      -815.522        -635.472
 80  4 13 18 25 50.0000000  0  7G01G16G25G22G19G18G14                0.000003141
   -238532.764 9   -180864.61749  20716180.241    20716179.9484   20716188.2784
       701.823         546.875
   -679163.426 9   -513149.95648  20926714.461    20926714.0294   20926723.0864
      2041.699        1590.934
    610987.328 9    467584.79246  24155688.891    24155689.1804   24155702.3914
     -2234.385       -1741.079
    -12730.811 9     -8779.41448  20958871.990    20958871.3544   20958880.4794
       -68.263         -53.192
  -1035060.861 9   -784469.34646  23793716.282    23793716.1374   23793728.8574
      3222.706        2511.199
  -1018819.384 9   -770815.84646  22794828.121    22794827.9394   22794838.5414
      3249.409        2532.007
    235316.629 9    179223.74349  20482975.150    20482975.1204   20482983.5774
      -820.951        -639.702
 80  4 13 18 26  0.0000000  0  7G01G16G25G22G19G18G14               -0.000000722
   -245540.870 9   -186325.48149  20714846.654    20714846.3544   20714854.6824
       699.899         545.376
   -699553.556 9   -529038.35848  20922834.353    20922833.9184   20922842.9864
      2036.445        1586.840
    633331.139 9    484995.47045  24159940.818    24159941.0914   24159954.3114
     -2234.263       -1740.984
    -12014.209 9     -8221.01648  20959008.375    20959007.7254   20959016.8464
       -74.992         -58.435
  -1067279.500 9   -809574.74546  23787585.258    23787585.1214   23787597.8694
      3221.173        2510.005
  -1051310.799 9   -796133.79646  22788645.170    22788644.9684   22788655.6114
      3248.980        2531.673
    243556.261 9    185644.22549  20484543.122    20484543.0774   20484551.5524
      -826.863        -644.309
 80  4 13 18 26  9.9990000  0  7G01G16G25G22G19G18G14               -0.000004587
   -252531.508 9   -191772.74049  20713516.391    20713516.0794   20713524.4144
       698.670         544.418
   -719891.437 9   -544886.06248  20918964.204    20918963.7394   20918972.8224
      2031.878        1583.282
    655668.814 9    502401.37845  24164191.593    24164191.8424   24164205.0954
     -2233.469       -1740.365
    -11233.690 9     -7612.82248  20959156.912    20959156.2694   20959165.3774
       -80.823         -62.979
  -1099482.320 9   -834667.84846  23781457.294    23781457.1474   23781469.9114
      3220.291        2509.318
  -1083796.976 9   -821447.69446  22782463.251    22782463.0564   22782473.6434
      3249.209        2531.851
    251851.252 9    192107.83249  20486121.630    20486121.5814   20486130.0524
      -831.986        -648.301
 80  4 13 18 26 19.9990000  0  7G01G16G25G22G19G18G14               -0.000008453
   -259504.729 9   -197206.42249  20712189.449    20712189.1274   20712197.4664
       696.214         542.504
   -740180.177 9   -560695.46448  20915103.372    20915102.9224   20915111.9904
      2026.117        1578.792
    678006.336 9    519807.13445  24168442.329    24168442.5624   24168455.8054
     -2233.831       -1740.648
    -10389.284 9     -6954.84148  20959317.623    20959316.9574   20959326.0694
       -87.908         -68.500
  -1131673.023 9   -859751.51646  23775331.636    23775331.5034   23775344.2014
      3218.023        2507.550
  -1116283.655 9   -846761.95146  22776281.224    22776281.0484   22776291.6784
      3248.345        2531.178
    260203.759 9    198616.26849  20487711.078    20487711.0214   20487719.4914
      -838.285        -653.209
 80  4 13 18 26 29.9990000  0  7G01G16G25G22G19G18G14               -0.000012322
   -266462.358 9   -202627.95449  20710865.473    20710865.1464   20710873.4784
       694.409         541.098
   -760420.196 9   -576466.89748  20911251.830    20911251.3874   20911260.4644
      2020.966        1574.779
    700339.147 9    537209.23845  24172692.186    24172692.3954   24172705.6004
     -2233.637       -1740.496
     -9482.030 9     -6247.88648  20959490.277    20959489.6104   20959498.7264
       -94.539         -73.667
  -1163849.745 8   -884824.26746  23769208.600    23769208.4664   23769221.1794
      3216.367        2506.260
  -1148770.177 9   -872076.13046  22770099.246    22770099.0484   22770109.6574
      3248.046        2530.945
    268610.360 9    205166.85549  20489310.817    20489310.7514   20489319.2274
      -843.934        -657.611
 80  4 13 18 26 39.9990000  0  7G01G16G25G22G19G18G14               -0.000016190
   -273400.833 9   -208034.56649  20709545.135    20709544.7914   20709553.1374
       693.018         540.014
   -780607.759 9   -592197.46848  20907410.275    20907409.8214   20907418.8934
      2016.307        1571.148
    722670.853 9    554610.46345  24176941.847    24176942.0044   24176955.2354
     -2232.933       -1739.948
     -8507.519 9     -5488.52948  20959675.734    20959675.0684   20959684.1754
      -100.688         -78.458
  -1196008.874 8   -909883.30645  23763088.913    23763088.7304   23763101.4524
      3215.197        2505.348
  -1181253.904 9   -897388.12346  22763917.823    22763917.6234   22763928.1844
      3248.421        2531.237
    277073.971 9    211761.86049  20490921.404    20490921.3444   20490929.8064
      -849.056        -661.602
 80  4 13 18 26 49.9990000  0  7G01G16G25G22G19G18G14               -0.000020061
   -280322.601 9   -213428.15549  20708227.962    20708227.6224   20708235.9604
       690.890         538.356
   -800746.495 9   -607889.98548  20903578.014    20903577.5454   20903586.6274
      2011.030        1567.036
    744997.626 8    572007.86645  24181190.550    24181190.6904   24181203.9024
     -2232.855       -1739.887
     -7468.829 9     -4679.15948  20959873.411    20959872.7174   20959881.8394
      -107.528         -83.788
  -1228153.237 9   -934930.86846  23756972.035    23756971.8384   23756984.5214
      3213.228        2503.814
  -1213738.373 9   -922700.65147  22757736.235    22757736.0204   22757746.6694
      3247.984        2530.897
    285591.605 9    218398.96149  20492542.283    20492542.2054   20492550.6704
      -854.903        -666.158
 80  4 13 18 26 59.9990000  0  7G01G16G25G22G19G18G14               -0.000023934
   -287227.431 9   -218808.55049  20706914.036    20706913.6974   20706922.0204
       690.379         537.958
   -820837.502 9   -623545.31348  20899754.815    20899754.3454   20899763.4304
      2007.520        1564.301
    767318.867 9    589400.94845  24185438.197    24185438.3304   24185451.5384
     -2231.061       -1738.489
     -6366.112 9     -3819.89748  20960083.267    20960082.5744   20960091.6934
      -112.794         -87.891
  -1260283.049 9   -959967.09746  23750857.931    23750857.7354   23750870.3704
      3213.005        2503.640
  -1246222.462 9   -948012.93646  22751554.740    22751554.4934   22751565.0724
      3249.131        2531.790
    294163.399 9    225078.26649  20494173.457    20494173.3744   20494181.8374
      -859.157        -669.473
 80  4 13 18 27  9.9990000  0  7G01G16G25G22G19G18G14               -0.000027808
   -294115.567 9   -224175.93549  20705603.285    20705602.9334   20705611.2684
       687.810         535.956
   -840883.026 9   -639165.19848  20895940.275    20895939.8084   20895948.9104
      2002.108        1560.084
    789633.547 9    606788.90745  24189684.607    24189684.7254   24189697.9104
     -2231.354       -1738.717
     -5199.037 9     -2910.49048  20960305.357    20960304.6704   20960313.7754
      -120.110         -93.592
  -1292398.259 9   -984991.91046  23744746.616    23744746.4244   23744759.0914
      3210.550        2501.727
  -1278706.673 9   -973325.27247  22745373.204    22745372.9394   22745383.5464
      3248.274        2531.122
    302789.196 9    231799.65049  20495814.914    20495814.8234   20495823.2884
      -865.477        -674.398
 80  4 13 18 27 19.9990000  0  7G01G16G25G22G19G18G14               -0.000031682
   -300983.916 9   -229527.89849  20704296.294    20704295.9354   20704304.2794
       685.817         534.403
   -860879.397 9   -654746.78048  20892135.110    20892134.6264   20892143.7194
      1997.145        1556.217
    811945.966 9    624175.12145  24193930.565    24193930.7144   24193943.8874
     -2231.210       -1738.605
     -3964.051 9     -1948.15648  20960540.364    20960539.6834   20960548.7994
      -126.989         -98.952
  -1324494.644 9  -1010002.04246  23738638.856    23738638.6644   23738651.4054
      3208.639        2500.238
  -1311188.281 9   -998635.61446  22739192.200    22739191.9114   22739202.4974
      3248.024        2530.928
    311472.991 9    238566.23349  20497467.402    20497467.3094   20497475.7754
      -871.306        -678.940
 80  4 13 18 27 29.9990000  0  7G01G16G25G22G19G18G14               -0.000035554
   -307832.701 9   -234864.61949  20702993.023    20702992.6714   20703001.0114
       683.529         532.620
   -880827.336 9   -670290.62348  20888339.150    20888338.6614   20888347.7524
      1992.059        1552.254
    834256.564 8    641559.90845  24198176.212    24198176.3074   24198189.4834
     -2231.274       -1738.655
     -2661.157 9      -932.91348  20960788.312    20960787.6074   20960796.7254
      -133.989        -104.407
  -1356572.488 8  -1034997.72046  23732534.614    23732534.4474   23732547.2534
      3206.576        2498.631
  -1343667.945 9  -1023944.42347  22733011.474    22733011.1864   22733021.7624
      3247.508        2530.526
    320214.176 9    245377.53049  20499130.810    20499130.7094   20499139.1874
      -877.276        -683.592
 80  4 13 18 27 39.9990000  0  7G01G16G25G22G19G18G14               -0.000039425
   -314660.079 9   -240184.66049  20701693.833    20701693.4754   20701701.8164
       681.959         531.397
   -900725.843 9   -685795.95348  20884552.581    20884552.1114   20884561.1984
      1987.645        1548.814
    856566.500 9    658944.18445  24202421.697    24202421.8034   24202435.0074
     -2230.654       -1738.172
     -1290.239 9       135.33348  20961049.194    20961048.4924   20961057.6094
      -140.217        -109.260
  -1388631.034 8  -1059978.36046  23726434.029    23726433.8644   23726446.7494
      3205.140        2497.512
  -1376143.988 9  -1049250.39147  22726831.510    22726831.2424   22726841.8324
      3247.757        2530.720
    329013.324 9    252233.99549  20500805.250    20500805.1454   20500813.6214
      -882.529        -687.685
 80  4 13 18 27 49.9990000  0  7G01G16G25G22G19G18G14               -0.000043296
   -321467.688 9   -245489.29649  20700398.405    20700398.0304   20700406.3834
       680.173         530.005
   -920575.571 9   -701263.26848  20880775.311    20880774.8244   20880783.9244
      1982.921        1545.133
    878873.609 8    676326.25045  24206666.648    24206666.7474   24206679.9874
     -2230.147       -1737.777
       146.475 9      1254.85348  20961322.596    20961321.8824   20961331.0124
      -146.569        -114.210
  -1420672.269 9  -1084945.52246  23720336.766    23720336.5804   23720349.4864
      3203.681        2496.375
  -1408619.398 9  -1074555.89746  22720651.605    22720651.3234   22720661.9344
      3247.934        2530.858
    337868.952 9    259134.47049  20502490.440    20502490.3224   20502498.8064
      -887.968        -691.923
 80  4 13 18 27 59.9990000  0  8G01G16G25G22G19G18G04G14            -0.000047167
   -328252.840 9   -250776.43049  20699107.247    20699106.8694   20699115.2194
       677.634         528.026
   -940373.988 9   -716690.59948  20877007.803    20877007.3174   20877016.4094
      1977.571        1540.964
    901179.468 9    693707.35045  24210911.373    24210911.4614   24210924.6954
     -2230.255       -1737.861
      1650.633 9      2426.92548  20961608.848    20961608.1324   20961617.2554
      -153.481        -119.596
  -1452694.263 9  -1109897.75546  23714243.223    23714243.0164   23714255.8384
      3201.514        2494.686
  -1441092.687 9  -1099859.76547  22714472.179    22714471.8914   22714482.4624
      3247.517        2530.533
     -7772.04718     -1262.11152  24539455.429           0.0005          0.0005
       886.372         690.679
    346783.461 9    266080.83049  20504186.826    20504186.7094   20504195.1834
      -894.116        -696.714
 80  4 13 18 28  9.9990000  0  8G01G16G25G22G19G18G04G14            -0.000051042
   -335013.471 9   -256044.45949  20697820.757    20697820.3724   20697828.7174
       674.666         525.714
   -960120.490 9   -732077.48048  20873250.179    20873249.6924   20873258.7844
      1971.912        1536.555
    923485.265 8    711088.39045  24215156.081    24215156.1684   24215169.4164
     -2230.695       -1738.204
      3221.166 9      3650.71548  20961907.709    20961906.9914   20961916.1194
      -160.525        -125.084
  -1484696.470 9  -1134834.60646  23708153.458    23708153.2704   23708165.9274
      3199.068        2492.780
  -1473563.861 9  -1125161.93147  22708293.113    22708292.7984   22708303.4474
      3246.906        2530.057
    -16604.204 8     -8144.31342  24537771.870           0.0004          0.0004
       880.101         685.793
    355757.829 9    273073.83049  20505894.617    20505894.4944   20505902.9724
      -900.553        -701.730
 80  4 13 18 28 19.9990000  0  8G01G16G25G22G19G18G04G14            -0.000054919
   -341748.932 9   -261292.88049  20696539.061    20696538.6714   20696547.0114
       672.737         524.211
   -979814.760 9   -747423.66348  20869502.496    20869501.9854   20869511.0764
      1967.244        1532.917
    945790.527 8    728469.01445  24219400.711    24219400.7404   24219414.0624
     -2230.037       -1737.691
      4858.300 9      4926.39448  20962219.262    20962218.5344   20962227.6684
      -166.661        -129.866
  -1516679.421 9  -1159756.40746  23702067.320    23702067.1274   23702079.7004
      3197.809        2491.799
  -1506032.955 9  -1150462.56347  22702114.492    22702114.1644   22702124.6974
      3247.228        2530.308
    -25379.112 8    -14981.90142  24536100.212           0.0004          0.0004
       875.041         681.850
    364791.743 9    280113.22549  20507613.738    20507613.6094   20507622.0844
      -905.918        -705.910
 80  4 13 18 28 29.9990000  0  8G01G16G25G22G19G18G04G14            -0.000058801
   -348465.369 9   -266526.47049  20695260.968    20695260.5804   20695268.9224
       670.162         522.204
   -999462.871 9   -762733.87548  20865763.583    20865763.0684   20865772.1624
      1961.974        1528.811
    968088.765 8    745844.16745  24223643.992    24223644.0114   24223657.3584
     -2230.018       -1737.676
      6557.068 9      6250.10848  20962542.538    20962541.8054   20962550.9294
      -173.562        -135.243
  -1548649.752 8  -1184668.31346  23695983.526    23695983.3254   23695995.9394
      3195.834        2490.260
  -1538506.030 9  -1175766.21547  22695935.010    22695934.6904   22695945.3004
      3246.957        2530.096
    -34104.181 7    -21780.45044  24534440.689           0.0004          0.0004
       869.451         677.494
    373878.609 9    287193.88849  20509342.933    20509342.8074   20509351.2804
      -911.863        -710.543
 80  4 13 18 28 39.9990000  0  8G01G16G25G22G19G18G04G14            -0.000062683
   -355156.047 9   -271739.99149  20693987.794    20693987.3934   20693995.7354
       667.607         520.213
  -1019057.621 9   -778002.50548  20862034.837    20862034.3264   20862043.4174
      1956.586        1524.612
    990386.444 8    763218.87945  24227887.156    24227887.1824   24227900.5054
     -2229.962       -1737.633
      8325.913 9      7628.42648  20962879.144    20962878.3994   20962887.5344
      -180.578        -140.710
  -1580600.539 8  -1209564.95046  23689903.413    23689903.2114   23689915.9374
      3193.925        2488.773
  -1570975.560 9  -1201067.16547  22689756.315    22689755.9964   22689766.5424
      3246.548        2529.778
    -42771.812 7    -28534.45045  24532791.666           0.0004          0.0004
       863.497         672.855
    383025.244 9    294321.12249  20511083.503    20511083.3714   20511091.8414
      -917.832        -715.194
 80  4 13 18 28 49.9990000  0  8G01G16G25G22G19G18G04G14            -0.000066568
   -361824.350 9   -276936.07749  20692718.868    20692718.4684   20692726.8104
       665.597         518.647
  -1038601.032 9   -793231.13748  20858315.863    20858315.3374   20858324.4314
      1951.652        1520.768
   1012680.920 8    780591.09145  24232129.705    24232129.7304   24232143.0714
     -2229.372       -1737.173
     10160.896 9      9058.27948  20963228.331    20963227.5874   20963236.7194
      -186.861        -145.606
  -1612535.318 9  -1234449.12446  23683826.435    23683826.1854   23683839.0054
      3192.604        2487.743
  -1603443.739 9  -1226367.01847  22683577.758    22683577.4564   22683587.9964
      3246.652        2529.859
    -51384.190 7    -35245.38745  24531152.997           0.0004          0.0004
       858.358         668.850
    392228.231 9    301492.26749  20512834.794    20512834.6594   20512843.1334
      -923.176        -719.358
 80  4 13 18 28 59.9990000  0  8G01G16G25G22G19G18G04G14            -0.000070456
   -368470.089 9   -282114.57849  20691454.232    20691453.8294   20691462.1774
       663.509         517.020
  -1058093.057 9   -808419.72348  20854606.655    20854606.1324   20854615.2204
      1946.655        1516.874
   1034971.161 8    797960.02545  24236371.476    24236371.4834   24236384.8484
     -2228.771       -1736.705
     12059.681 9     10537.84648  20963589.671    20963588.9244   20963598.0544
      -193.055        -150.432
  -1644455.323 9  -1259321.84246  23677752.266    23677752.0284   23677764.8494
      3191.306        2486.732
  -1635910.782 9  -1251665.99247  22677399.534    22677399.2304   22677409.7764
      3246.690        2529.888
    -59942.692 7    -41914.33445  24529524.495           0.0004          0.0004
       853.171         664.808
    401486.617 9    308706.57949  20514596.635    20514596.4834   20514604.9644
      -928.573        -723.563
 80  4 13 18 29  9.9990000  0  8G01G16G25G22G19G18G04G14            -0.000074347
   -375093.571 9   -287275.73949  20690193.848    20690193.4394   20690201.7824
       660.991         515.058
  -1077532.820 9   -823567.58548  20850907.381    20850906.8784   20850915.9504
      1941.105        1512.549
   1057257.667 8    815326.02245  24240612.535    24240612.4924   24240625.9134
     -2228.762       -1736.698
     14022.079 9     12066.97948  20963963.097    20963962.3494   20963971.4884
      -199.639        -155.563
  -1676360.531 9  -1284183.06546  23671680.956    23671680.7064   23671693.4754
      3189.524        2485.343
  -1668376.329 9  -1276963.79546  22671221.500    22671221.1924   22671231.7504
      3246.246        2529.542
    -68447.851 7    -48541.71945  24527906.036           0.0004   24527920.4334
       847.526         660.410
    410800.645 9    315964.24949  20516369.058    20516368.9034   20516377.3874
      -934.416        -728.116
 80  4 13 18 29 19.9990000  0  8G01G16G25G22G19G18G04G14            -0.000078242
   -381696.385 9   -292420.79649  20688937.387    20688936.9714   20688945.3124
       658.882         513.414
  -1096921.145 9   -838675.36848  20847217.906    20847217.3924   20847226.4744
      1935.886        1508.483
   1079539.663 8    832688.52745  24244852.725    24244852.6724   24244866.1244
     -2228.345       -1736.373
     16045.963 9     13644.02748  20964348.240    20964347.5004   20964356.6114
      -205.808        -160.370
  -1708251.991 9  -1309033.59146  23665612.253    23665612.0014   23665624.6934
      3188.091        2484.227
  -1700842.316 9  -1302261.99547  22665043.476    22665043.1604   22665053.6554
      3246.300        2529.584
    -76900.489 8    -55128.20545  24526297.499    24526297.5194   24526314.6204
       842.213         656.270
    420168.840 9    323264.12649  20518151.786    20518151.6274   20518160.1194
      -939.863        -732.361
 80  4 13 18 29 29.9990000  0  8G01G16G25G22G19G18G04G14            -0.000082140
   -388274.807 9   -297546.84149  20687685.559    20687685.1504   20687693.4894
       656.632         511.661
  -1116253.665 9   -853739.67048  20843539.057    20843538.5304   20843547.6224
      1930.441        1504.240
   1101820.907 8    850050.43345  24249092.784    24249092.7164   24249106.1764
     -2228.084       -1736.169
     18133.404 9     15270.59448  20964745.472    20964744.7304   20964753.8454
      -211.971        -165.172
  -1740126.156 8  -1333870.59746  23659546.765    23659546.5434   23659559.2104
      3186.549        2483.025
  -1733305.952 9  -1327558.27347  22658865.806    22658865.4884   22658876.1004
      3246.228        2529.528
    -85297.385 8    -61671.25145  24524699.715    24524699.3304   24524714.0884
       836.862         652.100
    429593.875 9    330608.29449  20519945.319    20519945.1654   20519953.6574
      -945.338        -736.627
 80  4 13 18 29 39.9990000  0  8G01G16G25G22G19G18G04G14            -0.000086041
   -394828.308 9   -302653.47349  20686438.480    20686438.0694   20686446.4094
       654.530         510.023
  -1135529.431 9   -868759.74348  20839871.007    20839870.4764   20839879.5824
      1925.154        1500.120
   1124101.636 8    867411.96245  24253332.748    24253332.6714   24253346.1524
     -2227.534       -1735.741
     20285.011 9     16947.16548  20965154.920    20965154.1574   20965163.2914
      -217.909        -169.799
  -1771982.876 9  -1358693.93146  23653484.557    23653484.3074   23653497.1164
      3185.247        2482.011
  -1765766.211 9  -1352852.01847  22652688.863    22652688.5364   22652699.0324
      3246.294        2529.580
    -93638.564 8    -68170.87045  24523112.537    24523113.7814   24523126.8364
       831.746         648.114
    439075.627 9    337996.65649  20521749.648    20521749.4914   20521757.9894
      -950.540        -740.681
 80  4 13 18 29 49.9990000  0  8G01G16G25G22G19G18G04G14            -0.000089948
   -401362.619 9   -307745.14849  20685195.061    20685194.6354   20685202.9734
       652.397         508.361
  -1154753.563 9   -883739.58848  20836212.773    20836212.2434   20836221.3444
      1919.718        1495.884
   1146374.425 8    884767.27545  24257571.181    24257571.0914   24257584.6104
     -2227.007       -1735.330
     22495.122 9     18669.31848  20965575.497    20965574.7404   20965583.8724
      -224.119        -174.638
  -1803828.573 9  -1383508.73446  23647424.527    23647424.2684   23647437.1044
      3183.934        2480.988
  -1798228.093 9  -1378146.96147  22646511.560    22646511.2314   22646521.7584
      3246.138        2529.458
   -101930.289 8    -74631.96145  24521534.751    24521535.6224   24521550.2404
       826.594         644.099
    448608.433 9    345424.80249  20523563.707    20523563.5424   20523572.0364
      -955.939        -744.888
 80  4 13 18 29 59.9990000  0  8G01G16G25G22G19G18G04G14            -0.000093859
   -407873.960 9   -312818.92649  20683955.996    20683955.5784   20683963.9124
       649.830         506.361
  -1173920.982 9   -898675.23348  20832565.329    20832564.8124   20832573.9064
      1913.715        1491.206
   1168643.552 8    902119.73745  24261808.948    24261808.8704   24261822.3994
     -2226.949       -1735.285
     24769.794 9     20441.78148  20966008.369    20966007.6034   20966016.7294
      -230.902        -179.924
  -1835659.040 9  -1408311.70546  23641367.400    23641367.1664   23641379.9294
      3182.107        2479.564
  -1830685.938 9  -1403438.78447  22640335.049    22640334.7254   22640345.2474
      3245.405        2528.887
   -110168.344 7    -81051.25255  24519967.141    24519966.6284   24519983.1595
       820.829         639.607
    458197.328 9    352896.65649  20525388.429    20525388.2664   20525396.7544
      -961.887        -749.522
 80  4 13 18 30  9.9990000  0  8G01G16G25G22G19G18G04G14            -0.000097773
   -414361.629 9   -317874.25849  20682721.443    20682721.0304   20682729.3614
       648.090         505.005
  -1193030.678 9   -913565.90048  20828928.891    20828928.3554   20828937.4664
      1908.612        1487.230
   1190910.581 8    919470.57445  24266046.282    24266046.2054   24266059.7294
     -2226.119       -1734.638
     27110.065 9     22265.35848  20966453.700    20966452.9584   20966462.0674
      -236.846        -184.555
  -1867473.233 9  -1433101.98146  23635313.334    23635313.0884   23635325.8384
      3181.094        2478.775
  -1863138.255 9  -1428726.30347  22634159.566    22634159.2314   22634169.7394
      3245.383        2528.870
   -118351.742 7    -87427.96645  24518409.865    24518410.2395   24518426.1964
       816.072         635.900
    467843.307 9    360412.98749  20527224.016    20527223.8504   20527232.3374
      -966.951        -753.468
 80  4 13 18 30 19.9990000  0  8G01G16G25G22G19G18G04G14            -0.000101690
   -420830.067 9   -322914.60449  20681490.551    20681490.1174   20681498.4644
       646.104         503.458
  -1212087.611 9   -928415.46048  20825302.493    20825301.9454   20825311.0534
      1903.265        1483.064
   1213172.053 8    936817.09345  24270282.553    24270282.4864   24270296.0234
     -2225.659       -1734.280
     29511.895 9     24136.90148  20966910.758    20966910.0124   20966919.1184
      -243.086        -189.418
  -1899274.542 9  -1457882.21546  23629261.731    23629261.4684   23629274.1814
      3179.683        2477.675
  -1895587.372 9  -1454011.30547  22627984.684    22627984.3584   22627994.8944
      3244.939        2528.524
   -126484.672 7    -93765.34745  24516862.124    24516862.2894   24516878.3424
       810.895         631.866
    477542.124 9    367970.48949  20529069.652    20529069.4874   20529077.9754
      -972.344        -757.671
 80  4 13 18 30 29.9990000  0  8G01G16G25G22G19G18G04G14            -0.000105610
   -427277.599 9   -327938.66149  20680263.628    20680263.1984   20680271.5384
       643.790         501.655
  -1231089.776 9   -943222.33948  20821686.505    20821685.9524   20821695.0764
      1897.571        1478.627
   1235430.020 8    954160.84645  24274518.161    24274518.1134   24274531.6444
     -2225.483       -1734.143
     31977.689 9     26058.28648  20967379.995    20967379.2444   20967388.3524
      -249.758        -194.617
  -1931060.907 9  -1482650.80546  23623212.992    23623212.7384   23623225.3814
      3177.962        2476.334
  -1928030.218 9  -1479291.43347  22621810.987    22621810.6654   22621821.1664
      3244.017        2527.805
   -134565.128 8   -100061.86745  24515324.435    24515324.3234   24515340.5654
       805.457         627.629
    487296.352 9    375571.17249  20530925.837    20530925.6714   20530934.1674
      -978.118        -762.170
 80  4 13 18 30 39.9990000  0  8G01G16G25G22G19G18G04G14            -0.000109531
   -433704.659 9   -332946.76249  20679040.596    20679040.1774   20679048.5214
       641.996         500.257
  -1250037.383 9   -957986.70048  20818080.907    20818080.3594   20818089.4734
      1892.323        1474.537
   1257684.233 8    971501.68845  24278753.064    24278753.0044   24278766.5594
     -2224.907       -1733.694
     34507.855 9     28029.83448  20967861.486    20967860.7254   20967869.8254
      -255.906        -199.407
  -1962832.134 9  -1507407.59746  23617167.125    23617166.9014   23617179.5214
      3176.650        2475.312
  -1960465.974 9  -1504566.03947  22615638.700    22615638.3904   22615648.8564
      3243.553        2527.444
   -142592.864 8   -106317.30745  24513796.838    24513796.9554   24513812.6754
       800.391         623.681
    497106.175 9    383215.17649  20532792.597    20532792.4404   20532800.9384
      -983.438        -766.315
 80  4 13 18 30 49.9990000  0  8G01G16G25G22G19G18G04G14            -0.000113456
   -440115.356 9   -337942.11649  20677820.678    20677820.2674   20677828.6104
       639.932         498.648
  -1268934.429 9   -972711.66748  20814484.908    20814484.3744   20814493.4864
      1886.878        1470.295
   1279930.167 8    988836.09545  24282986.373    24282986.3384   24282999.8854
     -2224.487       -1733.366
     37097.448 9     30047.68648  20968354.263    20968353.5154   20968362.6264
      -262.225        -204.331
  -1994592.085 9  -1532155.58246  23611123.439    23611123.2104   23611135.8444
      3175.125        2474.123
  -1992898.938 9  -1529838.44147  22609466.862    22609466.5494   22609477.0784
      3242.823        2526.875
   -150571.729 8   -112534.63345  24512278.521    24512278.8664   24512293.9594
       795.179         619.620
    506967.031 9    390898.94449  20534669.069    20534668.9084   20534677.4154
      -988.947        -770.608
 80  4 13 18 30 59.9990000  0  8G01G16G25G22G19G18G04G14            -0.000117384
   -446504.579 9   -342920.73449  20676604.854    20676604.4394   20676612.7774
       637.772         496.965
  -1287776.315 9   -987393.65048  20810899.446    20810898.8804   20810907.9924
      1881.392        1466.020
   1302172.146 9   1006167.41146  24287218.971    24287218.9034   24287232.4974
     -2224.045       -1733.022
     39750.035 9     32114.62848  20968859.033    20968858.2834   20968867.4124
      -268.476        -209.202
  -2026336.827 9  -1556891.71646  23605082.634    23605082.4004   23605095.0744
      3173.664        2472.985
  -2025323.958 9  -1555104.70447  22603296.610    22603296.3014   22603306.7534
      3242.095        2526.308
   -158497.945 8   -118710.90945  24510770.260    24510770.7724   24510785.3374
       789.949         615.545
    516883.679 9    398626.19249  20536556.156    20536555.9974   20536564.5104
      -994.487        -774.925
 80  4 13 18 31  9.9990000  0  8G01G16G25G22G19G18G04G14            -0.000121313
   -452869.731 9   -347880.60149  20675393.614    20675393.1894   20675401.5344
       635.384         495.104
  -1306561.722 9  -1002031.62648  20807324.689    20807324.1284   20807333.2414
      1875.823        1461.680
   1324411.830 9   1023496.94245  24291451.115    24291451.0274   24291464.6524
     -2223.775       -1732.812
     42467.385 9     34232.03048  20969376.143    20969375.3724   20969384.5114
      -274.958        -214.253
  -2058064.435 8  -1581614.48746  23599045.063    23599044.8254   23599057.5684
      3171.970        2471.665
  -2057739.879 9  -1580363.82947  22597128.052    22597127.7334   22597138.2454
      3241.216        2525.623
   -166370.850 8   -124845.63345  24509272.173    24509272.6924   24509287.0984
       784.659         611.423
    526857.679 9    406398.12149  20538454.166    20538454.0034   20538462.5074
     -1000.188        -779.367
 80  4 13 18 31 19.9990000  0  8G01G16G25G22G19G18G04G14            -0.000125242
   -459210.845 9   -352821.73149  20674186.942    20674186.5184   20674194.8654
       632.928         493.191
  -1325290.963 9  -1016625.83548  20803760.629    20803760.0754   20803769.1894
      1870.091        1457.214
   1346649.759 9   1040825.09146  24295682.952    24295682.8674   24295696.5224
     -2223.695       -1732.749
     45251.104 9     36401.15248  20969905.868    20969905.1084   20969914.2434
      -281.731        -219.531
  -2089774.102 9  -1606323.24145  23593010.787    23593010.5914   23593023.3764
      3169.974        2470.110
  -2090146.349 9  -1605615.64047  22590961.348    22590961.0224   22590971.4414
      3240.161        2524.801
   -174189.931 8   -130938.40845  24507784.320    24507784.8144   24507799.1764
       779.118         607.105
    536889.449 9    414215.07149  20540363.155    20540362.9914   20540371.5014
     -1006.077        -783.956
 80  4 13 18 31 29.9990000  0  8G01G16G25G22G19G18G04G14            -0.000129170
   -465529.816 9   -357745.61249  20672984.482    20672984.0614   20672992.4014
       630.718         491.469
  -1343965.083 9  -1031177.09648  20800207.070    20800206.5264   20800215.6254
      1864.584        1452.923
   1368884.251 9   1058150.57746  24299914.083    24299914.0414   24299927.7054
     -2223.316       -1732.454
     48099.973 9     38621.03548  20970448.001    20970447.2414   20970456.3694
      -288.268        -224.624
  -2121465.838 9  -1631018.14346  23586980.073    23586979.8694   23586992.5204
      3168.230        2468.751
  -2122544.606 9  -1630860.99847  22584796.124    22584795.8104   22584806.2564
      3239.352        2524.170
   -181956.229 8   -136990.05245  24506306.501    24506306.9384   24506321.3174
       773.880         603.023
    546977.836 9    422076.13748  20542282.928    20542282.7654   20542291.2794
     -1011.740        -788.369
 80  4 13 18 31 39.9990000  0  8G01G16G25G22G19G18G04G14            -0.000133099
   -471827.807 9   -362653.14449  20671786.023    20671785.6014   20671793.9504
       629.166         490.259
  -1362585.127 9  -1045686.21848  20796663.804    20796663.2484   20796672.3554
      1859.715        1449.129
   1391113.565 9   1075472.01946  24304144.279    24304144.2334   24304157.8854
     -2222.210       -1731.592
     51014.209 9     40891.85148  20971002.579    20971001.8114   20971010.9394
      -294.346        -229.361
  -2153141.382 9  -1655700.45046  23580952.482    23580952.2864   23580964.7704
      3167.192        2467.942
  -2154935.413 9  -1656100.60447  22578632.395    22578632.0694   22578642.4994
      3239.120        2523.990
   -189670.820 8   -143001.41445  24504838.518    24504838.9674   24504853.2704
       769.278         599.437
    557121.590 9    429980.33949  20544213.229    20544213.0674   20544221.5834
     -1016.712        -792.243
 80  4 13 18 31 49.9990000  0  8G01G16G25G22G19G18G04G14            -0.000137031
   -478105.096 9   -367544.54549  20670591.475    20670591.0724   20670599.4224
       626.180         487.932
  -1381151.138 9  -1060153.23548  20793130.793    20793130.2524   20793139.3614
      1853.354        1444.172
   1413336.490 9   1092788.49946  24308373.230    24308373.1604   24308386.8394
     -2222.477       -1731.800
     53995.104 9     43214.61448  20971569.828    20971569.0544   20971578.1904
      -302.021        -235.341
  -2184801.980 9  -1680371.05346  23574927.723    23574927.5154   23574939.9504
      3164.806        2466.083
  -2187319.197 9  -1681334.67047  22572469.909    22572469.5784   22572480.0414
      3237.500        2522.727
   -197333.850 8   -148972.60045  24503380.321    24503380.8814   24503394.8824
       763.098         594.622
    567320.326 9    437927.39149  20546153.993    20546153.8324   20546162.3624
     -1023.150        -797.260
 80  4 13 18 31 59.9990000  0  8G01G16G25G22G19G18G04G14            -0.000140961
   -484356.966 9   -372416.13949  20669401.807    20669401.3874   20669409.7374
       624.285         486.456
  -1399657.175 9  -1074573.52148  20789609.200    20789608.6674   20789617.7624
      1847.959        1439.968
   1435557.092 9   1110103.15146  24312601.740    24312601.6324   24312615.3884
     -2221.560       -1731.086
     57048.883 9     45594.17048  20972150.937    20972150.1794   20972159.3174
      -308.668        -240.521
  -2216442.915 9  -1705026.32846  23568906.707    23568906.4974   23568918.8944
      3163.479        2465.049
  -2219690.844 9  -1706559.33447  22566309.808    22566309.4804   22566319.9234
      3236.919        2522.275
   -204939.805 8   -154899.30245  24501932.991    24501933.5094   24501947.4774
       758.056         590.693
    577579.322 9    445921.39649  20548106.235    20548106.0704   20548114.6044
     -1028.576        -801.488
 80  4 13 18 32  9.9990000  0  8G01G16G25G22G19G18G04G14            -0.000144893
   -490587.703 9   -377271.26249  20668216.134    20668215.7234   20668224.0734
       622.108         484.759
  -1418107.533 9  -1088950.41448  20786098.225    20786097.6764   20786106.7924
      1842.364        1435.608
   1457771.496 9   1127412.99646  24316829.072    24316828.9664   24316842.7514
     -2221.064       -1730.699
     60171.312 9     48027.21548  20972745.126    20972744.3684   20972753.5014
      -315.552        -245.885
  -2248068.200 8  -1729669.34346  23562888.567    23562888.3824   23562900.8224
      3161.828        2463.762
  -2252055.144 9  -1731778.23147  22560151.025    22560150.7224   22560161.1804
      3236.194        2521.710
   -212492.336 8   -160784.37545  24500495.820    24500496.3324   24500510.2394
       752.562         586.412
    587894.495 9    453959.18248  20550069.174    20550069.0074   20550077.5394
     -1034.212        -805.879
 80  4 13 18 32 19.9990000  0  8G01G16G25G22G19G18G04G14            -0.000148826
   -496793.465 9   -382106.92849  20667035.225    20667034.8144   20667043.1614
       619.471         482.705
  -1436499.452 9  -1103281.77948  20782598.365    20782597.8134   20782606.9184
      1836.467        1431.013
   1479983.631 9   1144721.05446  24321055.960    24321055.8604   24321069.7074
     -2220.887       -1730.561
     63363.946 9     50514.96648  20973352.671    20973351.9204   20973361.0514
      -322.593        -251.371
  -2279674.874 8  -1754297.81046  23556873.866    23556873.6644   23556886.3264
      3159.893        2462.254
  -2284410.426 9  -1756990.13147  22553994.035    22553993.7284   22554004.1874
      3235.312        2521.022
   -219988.150 8   -166625.27145  24499069.455    24499069.9144   24499083.7654
       746.844         581.956
    598268.779 9    462043.01848  20552043.348    20552043.1804   20552051.7124
     -1040.200        -810.545
 80  4 13 18 32 29.9990000  0  8G01G16G25G22G19G18G04G14            -0.000152761
   -502977.781 9   -386925.87949  20665858.388    20665857.9924   20665866.3284
       617.354         481.055
  -1454837.631 9  -1117571.26348  20779108.728    20779108.1794   20779117.2784
      1831.088        1426.822
   1502187.934 8   1162023.02445  24325281.390    24325281.2554   24325295.1264
     -2220.029       -1729.893
     66621.867 9     53053.59748  20973972.645    20973971.8904   20973981.0274
      -329.132        -256.466
  -2311267.133 9  -1778915.12946  23550862.021    23550861.8104   23550874.5394
      3158.458        2461.136
  -2316762.004 9  -1782199.10247  22547837.681    22547837.3684   22547847.8654
      3234.917        2520.715
   -227431.380 8   -172425.18545  24497653.089    24497653.5504   24497667.3424
       741.563         577.841
    608697.958 9    470169.63848  20554027.969    20554027.8014   20554036.3394
     -1045.689        -814.822
 80  4 13 18 32 39.9990000  0  8G01G16G25G22G19G18G04G14            -0.000156699
   -509140.025 9   -391727.63849  20664685.768    20664685.3574   20664693.7074
       614.672         478.965
  -1473120.436 9  -1131817.60348  20775629.636    20775629.0744   20775638.1784
      1825.038        1422.108
   1524384.833 9   1179319.20146  24329505.379    24329505.2334   24329519.1164
     -2219.722       -1729.654
     69946.439 9     55644.15448  20974605.299    20974604.5444   20974613.6824
      -336.304        -262.055
  -2342844.363 9  -1803520.80246  23544853.142    23544852.9334   23544865.5444
      3156.546        2459.646
  -2349109.605 9  -1807405.06647  22541682.188    22541681.8424   22541692.2704
      3234.192        2520.150
   -234821.883 8   -178184.03045  24496246.735    24496247.1924   24496260.9784
       735.949         573.467
    619182.762 9    478339.59648  20556023.181    20556023.0064   20556031.5504
     -1051.675        -819.487
 80  4 13 18 32 49.9990000  0  8G01G16G25G22G19G18G04G14            -0.000160638
   -515274.149 9   -396507.47649  20663518.490    20663518.0854   20663526.4334
       612.649         477.389
  -1491341.794 9  -1146016.05348  20772162.221    20772161.6724   20772170.7754
      1819.717        1417.961
   1546578.992 9   1196613.24946  24333728.865    24333728.7244   24333742.6324
     -2218.616       -1728.792
     73344.364 9     58291.87448  20975251.909    20975251.1524   20975260.2874
      -342.846        -267.153
  -2374400.768 9  -1828110.26246  23538848.232    23538848.0304   23538860.4704
      3155.195        2458.593
  -2381448.848 9  -1832604.42147  22535528.188    22535527.8514   22535538.3634
      3234.195        2520.152
   -242154.842 8   -183898.03945  24494851.320    24494851.7544   24494865.5764
       731.114         569.699
    629727.818 9    486556.50948  20558029.854    20558029.6784   20558038.2244
     -1056.854        -823.523
 80  4 13 18 32 59.9990000  0  8G01G16G25G22G19G18G04G14            -0.000164580
   -521382.559 9   -401267.28449  20662356.091    20662355.7054   20662364.0554
       609.712         475.100
  -1509504.161 9  -1160168.54248  20768706.020    20768705.4804   20768714.5764
      1813.438        1413.069
   1568767.717 9   1213903.07346  24337951.327    24337951.1694   24337965.0724
     -2218.430       -1728.647
     76813.702 9     60995.24048  20975912.107    20975911.3564   20975920.4984
      -350.364        -273.011
  -2405938.157 9  -1852684.85746  23532846.898    23532846.6994   23532859.0574
      3152.936        2456.833
  -2413782.711 9  -1857799.64347  22529375.273    22529374.9404   22529385.3904
      3233.278        2519.437
   -249434.389 8   -189570.43945  24493466.076    24493466.5044   24493480.2484
       725.399         565.246
    640330.007 9    494817.93948  20560047.394    20560047.2124   20560055.7734
     -1062.907        -828.239
 80  4 13 18 33  9.9990000  0  8G01G16G25G22G19G18G04G14            -0.000168525
   -527465.355 9   -406007.13249  20661198.586    20661198.1904   20661206.5454
       607.360         473.268
  -1527607.688 9  -1174275.17848  20765261.027    20765260.4884   20765269.6044
      1807.727        1408.618
   1590950.992 9   1231188.64746  24342172.739    24342172.6044   24342186.5054
     -2217.717       -1728.091
     80354.429 9     63754.23748  20976585.892    20976585.1404   20976594.2844
      -357.362        -278.464
  -2437456.562 9  -1877244.61046  23526849.115    23526848.9134   23526861.3034
      3151.196        2455.477
  -2446111.119 9  -1882990.56647  22523223.321    22523223.0054   22523233.5004
      3232.908        2519.149
   -256661.223 8   -195201.78345  24492090.894    24492091.2654   24492105.0454
       720.266         561.246
    650989.393 9    503123.93848  20562075.813    20562075.6454   20562084.2054
     -1068.474        -832.577
 80  4 13 18 33 19.9990000  0  8G01G16G25G22G19G18G04G14            -0.000172473
   -533525.522 9   -410729.34649  20660045.381    20660044.9844   20660053.3444
       604.650         471.156
  -1545654.224 9  -1188337.40648  20761826.905    20761826.3394   20761835.4674
      1801.554        1403.808
   1613126.812 9   1248468.40746  24346392.721    24346392.5904   24346406.5334
     -2217.438       -1727.874
     83964.991 9     66567.64448  20977272.971    20977272.2134   20977281.3574
      -364.848        -284.297
  -2468957.783 9  -1901790.97046  23520854.570    23520854.3854   23520866.8364
      3148.984        2453.754
  -2478436.374 9  -1908179.08347  22517072.067    22517071.7354   22517082.1914
      3232.165        2518.570
   -263836.877 8   -200793.21945  24490725.424    24490725.7764   24490739.6054
       714.664         556.881
    661703.664 9    511472.70748  20564114.677    20564114.5054   20564123.0794
     -1074.408        -837.201
 80  4 13 18 33 29.9990000  0  8G01G16G25G22G19G18G04G14            -0.000176424
   -539560.930 9   -415432.26949  20658896.893    20658896.4864   20658904.8484
       602.284         469.312
  -1563641.242 9  -1202353.25648  20758404.074    20758403.5324   20758412.6524
      1795.665        1399.219
   1635297.369 9   1265744.07646  24350611.699    24350611.5484   24350625.5314
     -2216.866       -1727.428
     87648.872 9     69438.18648  20977973.988    20977973.2474   20977982.3874
      -372.093        -289.943
  -2500439.521 9  -1926322.19946  23514863.737    23514863.5464   23514876.0164
      3147.169        2452.339
  -2510756.757 9  -1933363.75947  22510921.632    22510921.3084   22510931.7964
      3231.717        2518.221
   -270958.745 8   -206342.73945  24489370.183    24489370.5284   24489384.4244
       709.358         552.746
    672475.381 9    519866.23748  20566164.479    20566164.3084   20566172.8744
     -1080.108        -841.643
 80  4 13 18 33 39.9990000  0  8G01G16G25G22G19G18G04G14            -0.000180378
   -545575.855 9   -420119.23249  20657752.277    20657751.8764   20657760.2514
       600.039         467.563
  -1581572.563 9  -1216325.71048  20754991.860    20754991.3144   20755000.4394
      1789.938        1394.757
   1657458.083 9   1283012.07446  24354828.813    24354828.6754   24354842.6704
     -2215.951       -1726.715
     91401.686 9     72362.44348  20978688.148    20978687.3874   20978696.5364
      -379.221        -295.497
  -2531906.459 9  -1950841.88046  23508875.765    23508875.5974   23508888.0074
      3145.538        2451.069
  -2543076.078 9  -1958547.61947  22504771.490    22504771.1594   22504781.6594
      3231.462        2518.022
   -278031.045 8   -211853.63645  24488024.428    24488024.7084   24488038.6394
       704.261         548.775
    683300.907 9    528301.69648  20568224.518    20568224.3514   20568232.9274
     -1085.666        -845.974
 80  4 13 18 33 49.9990000  0  8G01G16G25G22G19G18G04G14            -0.000184335
   -551566.159 9   -424787.01049  20656612.358    20656611.9674   20656620.3394
       597.557         465.629
  -1599445.013 9  -1230252.29048  20751590.840    20751590.3094   20751599.4264
      1784.107        1390.213
   1679612.619 9   1300275.26345  24359044.759    24359044.6164   24359058.6254
     -2215.386       -1726.275
     95228.066 9     75344.02348  20979416.287    20979415.5374   20979424.6884
      -386.585        -301.235
  -2563355.316 9  -1975347.46046  23502891.220    23502891.0334   23502903.4944
      3143.746        2449.672
  -2575390.805 9  -1983727.91347  22498622.161    22498621.8414   22498632.3044
      3230.992        2517.656
   -285049.106 8   -217322.27445  24486688.967    24486689.2414   24486703.1504
       698.824         544.538
    694184.080 9    536782.07248  20570295.530    20570295.3574   20570303.9414
     -1091.448        -850.479
 80  4 13 18 33 59.9990000  0  8G01G16G25G22G19G18G04G14            -0.000188296
   -557536.169 9   -429438.97549  20655476.323    20655475.9144   20655484.2944
       595.975         464.396
  -1617264.212 9  -1244137.37448  20748199.971    20748199.4134   20748208.5334
      1779.249        1386.428
   1701756.332 9   1317530.02245  24363258.656    24363258.5334   24363272.5274
     -2213.787       -1725.029
     99123.363 9     78379.30548  20980157.547    20980156.7954   20980165.9574
      -392.929        -306.178
  -2594790.885 9  -1999842.69546  23496909.247    23496909.0584   23496921.4734
      3142.861        2448.983
  -2607705.408 9  -2008908.08847  22492472.895    22492472.5684   22492483.0954
      3231.434        2518.001
   -292017.090 8   -222751.89945  24485363.022    24485363.3064   24485377.1854
       694.204         540.938
    705120.591 9    545304.01548  20572376.692    20572376.5334   20572385.1154
     -1096.314        -854.271
 80  4 13 18 34  9.9990000  0  8G01G16G25G22G19G18G04G14            -0.000192257
   -563479.683 9   -434070.29049  20654345.311    20654344.9134   20654353.2904
       592.265         461.505
  -1635023.922 9  -1257976.10348  20744820.402    20744819.8554   20744828.9814
      1772.285        1381.001
   1723895.262 9   1334781.04345  24367471.602    24367471.4844   24367485.5114
     -2214.420       -1725.522
    103091.991 9     81471.72848  20980912.766    20980912.0144   20980921.1684
      -401.295        -312.697
  -2626205.942 9  -2024321.98246  23490931.206    23490931.0074   23490943.3594
      3139.649        2446.480
  -2640013.112 9  -2034082.90647  22486324.918    22486324.6034   22486335.0994
      3229.658        2516.617
   -298928.930 8   -228137.75645  24484047.751    24484048.0564   24484061.9104
       687.484         535.702
    716116.355 9    553872.12748  20574469.134    20574468.9694   20574477.5624
     -1103.309        -859.721
 80  4 13 18 34 19.9990000  0  8G01G16G25G22G19G18G04G14            -0.000196219
   -569397.386 9   -438681.49549  20653219.206    20653218.8144   20653227.1914
       590.817         460.377
  -1652726.469 9  -1271770.29048  20741451.728    20741451.1804   20741460.3034
      1767.786        1377.496
   1746029.895 9   1352028.71045  24371683.778    24371683.6374   24371697.6674
     -2212.932       -1724.363
    107131.637 9     84619.49448  20981681.496    20981680.7454   20981689.8994
      -407.139        -317.251
  -2657600.686 9  -2048785.43546  23484957.037    23484956.8524   23484969.1224
      3138.799        2445.817
  -2672314.802 9  -2059253.02947  22480178.107    22480177.7834   22480188.2674
      3230.242        2517.072
   -305786.029 8   -233480.95545  24482742.913    24482743.1714   24482757.0924
       683.351         532.481
    727170.572 9    562485.78748  20576572.700    20576572.5384   20576581.1384
     -1107.968        -863.352
 80  4 13 18 34 29.9990000  0  8G01G16G25G22G19G18G04G14            -0.000200180
   -575288.107 9   -443271.67449  20652098.247    20652097.8564   20652106.2334
       587.470         457.769
  -1670371.266 9  -1285519.47448  20738094.030    20738093.4814   20738102.6064
      1761.313        1372.452
   1768162.243 9   1369274.59545  24375895.485    24375895.3824   24375909.4014
     -2213.409       -1724.734
    111242.136 9     87822.46948  20982463.706    20982462.9544   20982472.1094
      -414.874        -323.278
  -2688973.673 8  -2073231.91746  23478986.936    23478986.7474   23478999.0324
      3135.912        2443.568
  -2704608.995 9  -2084417.32147  22474032.711    22474032.3874   22474042.8834
      3228.739        2515.901
   -312588.678 8   -238781.73945  24481448.401    24481448.7124   24481462.6034
       677.245         527.723
    738283.613 9    571145.28448  20578687.460    20578687.2964   20578695.8924
     -1114.501        -868.442
 80  4 13 18 34 39.9990000  0  8G01G16G25G22G19G18G04G14            -0.000204139
   -581150.905 9   -447840.09549  20650982.600    20650982.2034   20650990.5814
       585.069         455.898
  -1687956.513 9  -1299222.25448  20734747.661    20734747.1184   20734756.2414
      1755.687        1368.068
   1790293.023 9   1386519.25445  24380106.916    24380106.7904   24380120.8424
     -2212.858       -1724.305
    115425.052 9     91081.87048  20983259.696    20983258.9444   20983268.1054
      -421.837        -328.704
  -2720322.467 8  -2097659.50745  23473021.340    23473021.0984   23473033.4884
      3133.766        2441.896
  -2736893.016 9  -2109573.67547  22467889.227    22467888.9214   22467899.4144
      3228.025        2515.344
   -319336.384 7   -244039.70345  24480164.349    24480164.6884   24480178.5584
       672.143         523.748
    749456.315 9    579851.27248  20580813.570    20580813.4034   20580822.0064
     -1120.050        -872.766
 80  4 13 18 34 49.9990000  0  8G01G16G25G22G19G18G04G14            -0.000208102
   -586994.507 9   -452393.55549  20649870.604    20649870.2144   20649878.5914
       583.126         454.384
  -1705489.425 9  -1312884.25948  20731411.250    20731410.7184   20731419.8464
      1750.379        1363.932
   1812414.608 9   1403756.76845  24384316.589    24384316.4694   24384330.5214
     -2212.055       -1723.679
    119673.088 9     94392.01648  20984068.079    20984067.3294   20984076.5014
      -428.355        -333.783
  -2751654.088 9  -2122073.71145  23467058.960    23467058.7234   23467071.1534
      3131.996        2440.516
  -2769173.859 9  -2134727.57047  22461746.420    22461746.1154   22461756.5984
      3227.665        2515.064
   -326037.547 7   -249261.39745  24478889.152    24478889.4494   24478903.3694
       667.519         520.145
    760680.188 9    588597.13248  20582949.416    20582949.2444   20582957.8624
     -1125.230        -876.803
 80  4 13 18 34 59.9990000  0  8G01G16G25G22G19G18G04G14            -0.000212063
   -592812.382 9   -456926.97149  20648763.519    20648763.1194   20648771.4954
       580.372         452.238
  -1722963.684 9  -1326500.55948  20728086.024    20728085.4754   20728094.6034
      1744.402        1359.274
   1834533.612 9   1420992.26945  24388525.760    24388525.6424   24388539.7244
     -2211.871       -1723.536
    123992.065 9     97757.44548  20984889.976    20984889.2244   20984898.3864
      -435.543        -339.384
  -2782962.050 9  -2146469.51946  23461101.280    23461101.0274   23461113.5104
      3129.479        2438.555
  -2801445.166 9  -2159874.01247  22455605.340    22455605.0394   22455615.5224
      3226.520        2514.171
   -332685.981 7   -254441.99145  24477624.013    24477624.2544   24477638.2394
       662.000         515.844
    771961.714 9    597387.91748  20585096.228    20585096.0604   20585104.6834
     -1131.161        -881.424
 80  4 13 18 35  9.9990000  0  8G01G16G25G22G19G18G04G14            -0.000216025
   -598605.966 9   -461441.45949  20647661.037    20647660.6424   20647669.0234
       578.405         450.705
  -1740381.394 9  -1340072.79648  20724771.534    20724770.9884   20724780.1134
      1739.166        1355.194
   1856648.295 9   1438224.40145  24392734.127    24392734.0104   24392748.0914
     -2211.059       -1722.903
    128378.500 9    101175.43148  20985724.710    20985723.9504   20985733.1154
      -441.750        -344.221
  -2814247.975 9  -2170848.16347  23455147.849    23455147.6114   23455160.0604
      3127.743        2437.202
  -2833708.047 9  -2185013.90847  22449465.955    22449465.6394   22449476.1204
      3226.099        2513.843
   -339282.883 8   -259582.46845  24476368.662    24476368.8264   24476382.9594
       657.353         512.223
    783299.735 9    606222.72748  20587253.806    20587253.6274   20587262.2534
     -1136.439        -885.537
 80  4 13 18 35 19.9990000  0  8G01G16G25G22G19G18G04G14            -0.000219988
   -604379.504 9   -465940.32849  20646562.386    20646561.9814   20646570.3614
       575.724         448.616
  -1757746.218 9  -1353603.82048  20721467.114    20721466.5744   20721475.6904
      1733.216        1350.558
   1878755.689 9   1455450.85045  24396941.070    24396940.9504   24396955.0634
     -2211.012       -1722.866
    132827.068 9    104641.83748  20986571.245    20986570.4944   20986579.6534
      -448.568        -349.534
  -2845516.906 9  -2195213.58446  23449197.676    23449197.4334   23449209.8094
      3125.463        2435.426
  -2865966.144 9  -2210150.04947  22443327.380    22443327.0744   22443337.5894
      3224.960        2512.956
   -345831.508 8   -264685.32245  24475122.500    24475122.6504   24475136.9204
       651.724         507.837
    794691.273 9    615099.23448  20589421.553    20589421.3694   20589430.0084
     -1142.454        -890.224
 80  4 13 18 35 29.9990000  0  8G01G16G25G22G19G18G04G14            -0.000223949
   -610125.589 9   -470417.80249  20645468.942    20645468.5464   20645476.9314
       573.336         446.755
  -1775050.701 9  -1367087.82648  20718174.183    20718173.6504   20718182.7534
      1727.510        1346.112
   1900863.786 9   1472677.85145  24401148.188    24401148.0354   24401162.1694
     -2210.706       -1722.628
    137345.052 9    108162.33148  20987431.010    20987430.2434   20987439.4194
      -455.224        -354.720
  -2876762.203 8  -2219560.58446  23443251.928    23443251.6944   23443263.9974
      3123.454        2433.860
  -2898212.107 9  -2235276.77147  22437191.193    22437190.9024   22437201.3414
      3224.107        2512.291
   -352323.417 8   -269743.98245  24473887.160    24473887.2734   24473901.5874
       646.387         503.678
    806143.853 9    624023.30648  20591600.912    20591600.7384   20591609.3704
     -1148.192        -894.695
 80  4 13 18 35 39.9990000  0  8G01G16G25G22G19G18G04G14            -0.000227908
   -615846.153 9   -474875.39249  20644380.366    20644379.9664   20644388.3524
       570.628         444.645
  -1792297.367 9  -1380526.78248  20714892.277    20714891.7294   20714900.8224
      1721.664        1341.556
   1922969.976 9   1489903.36645  24405354.921    24405354.7674   24405368.9134
     -2210.688       -1722.614
    141930.306 9    111735.24948  20988303.565    20988302.8034   20988311.9734
      -461.953        -359.963
  -2907986.458 8  -2243891.09845  23437310.023    23437309.7864   23437322.1624
      3121.234        2432.130
  -2930448.654 9  -2260396.13047  22431056.758    22431056.4654   22431066.9524
      3223.100        2511.506
   -358761.325 8   -274760.53845  24472662.063    24472662.1504   24472676.5414
       640.924         499.421
    817654.986 9    632993.00748  20593791.420    20593791.2454   20593799.8854
     -1154.174        -899.356
 80  4 13 18 35 49.9990000  0  8G01G16G25G22G19G18G04G14            -0.000231867
   -621540.656 9   -479312.67349  20643296.754    20643296.3484   20643304.7324
       567.549         442.246
  -1809485.577 9  -1393920.18648  20711621.462    20711620.9144   20711630.0124
      1715.283        1336.584
   1945075.154 8   1507128.09645  24409561.460    24409561.2844   24409575.4614
     -2211.084       -1722.923
    146581.812 9    115359.78448  20989188.734    20989187.9714   20989197.1424
      -469.084        -365.520
  -2939188.894 9  -2268204.63146  23431372.306    23431372.0234   23431384.5164
      3118.507        2430.005
  -2962675.317 9  -2285507.80747  22424924.240    22424923.9344   22424934.3634
      3221.570        2510.314
   -365144.766 8   -279734.65945  24471447.367    24471447.4264   24471461.8354
       634.930         494.751
    829225.333 9    642008.84848  20595993.202    20595993.0184   20596001.6704
     -1160.584        -904.351
 80  4 13 18 35 59.9990000  0  8G01G16G25G22G19G18G04G14            -0.000235822
   -627207.027 9   -483728.03349  20642218.472    20642218.0844   20642226.4754
       565.321         440.510
  -1826612.773 9  -1407266.04548  20708362.264    20708361.7104   20708370.8084
      1709.705        1332.238
   1967181.487 8   1524353.72445  24413768.250    24413768.0744   24413782.2574
     -2210.656       -1722.589
    151301.110 9    119037.14848  20990086.795    20990086.0374   20990095.2034
      -475.258        -370.331
  -2970366.862 9  -2292499.16646  23425439.333    23425439.0494   23425451.4994
      3116.658        2428.565
  -2994890.182 9  -2310610.24647  22418793.923    22418793.6264   22418804.1164
      3220.987        2509.860
   -371470.628 8   -284663.91645  24470243.646    24470243.6714   24470258.0424
       629.686         490.664
    840856.731 9    651072.26048  20598206.602    20598206.4164   20598215.0664
     -1166.112        -908.659
 80  4 13 18 36  9.9990000  0  8G01G16G25G22G19G18G04G14            -0.000239776
   -632846.416 9   -488122.36749  20641145.357    20641144.9544   20641153.3434
       562.759         438.514
  -1843678.871 9  -1420564.30048  20705114.702    20705114.1454   20705123.2384
      1703.669        1327.534
   1989287.484 8   1541579.08945  24417974.949    24417974.8264   24417988.9624
     -2210.356       -1722.355
    156085.851 9    122765.51048  20990997.312    20990996.5624   20991005.7154
      -481.527        -375.216
  -3001522.126 9  -2316776.02846  23419510.728    23419510.4514   23419522.8294
      3114.600        2426.961
  -3027094.782 9  -2335704.73947  22412665.595    22412665.2954   22412675.7404
      3220.143        2509.202
   -377740.590 8   -289549.59745  24469050.580    24469050.5914   24469064.8934
       624.405         486.549
    852547.623 9    660182.03248  20600431.311    20600431.1314   20600439.7814
     -1171.872        -913.147
 80  4 13 18 36 19.9990000  0  8G01G16G25G22G19G18G04G14            -0.000243735
   -638464.335 9   -492499.97449  20640076.316    20640075.9144   20640084.3004
       560.443         436.709
  -1860688.089 9  -1433818.23248  20701877.966    20701877.4104   20701886.5034
      1697.788        1322.952
   2011387.451 9   1558799.74145  24422180.469    24422180.3404   24422194.5124
     -2210.000       -1722.078
    160929.294 9    126539.60948  20991919.004    20991918.2524   20991927.4194
      -487.613        -379.958
  -3032661.069 9  -2341040.12746  23413585.244    23413584.9744   23413597.3394
      3112.807        2425.564
  -3059295.082 9  -2360795.86147  22406538.087    22406537.7884   22406548.2074
      3219.547        2508.738
   -383962.173 8   -294397.58645  24467866.678    24467866.7204   24467880.9774
       619.420         482.665
    864291.458 9    669333.05648  20602666.104    20602665.9184   20602674.5774
     -1177.292        -917.370
 80  4 13 18 36 29.9990000  0  8G01G16G25G22G19G18G04G14            -0.000247695
   -644055.137 9   -496856.44849  20639012.435    20639012.0354   20639020.4144
       557.621         434.510
  -1877634.241 9  -1447023.01648  20698653.234    20698652.6714   20698661.7584
      1691.363        1317.945
   2033488.434 8   1576021.21345  24426386.217    24426386.1034   24426400.2954
     -2210.266       -1722.285
    165838.321 9    130364.81648  20992853.176    20992852.4214   20992861.5864
      -494.362        -385.217
  -3063778.506 9  -2365287.45646  23407663.812    23407663.5494   23407675.9474
      3110.594        2423.839
  -3091485.956 9  -2385879.62247  22400412.340    22400412.0464   22400422.4644
      3218.528        2507.944
   -390129.640 8   -299203.41045  24466693.075    24466693.1594   24466707.3524
       613.922         478.381
    876093.966 9    678529.80148  20604912.056    20604911.8774   20604920.5394
     -1183.310        -922.060
 80  4 13 18 36 39.9990000  0  8G01G16G25G22G19G18G04G14            -0.000251657
   -649620.412 9   -501193.03449  20637953.400    20637953.0034   20637961.3904
       555.748         433.050
  -1894518.391 9  -1460179.49248  20695440.271    20695439.7164   20695448.8164
      1685.763        1313.582
   2055588.830 8   1593242.21145  24430591.851    24430591.6884   24430605.9474
     -2209.551       -1721.728
    170812.237 9    134240.58548  20993799.705    20993798.9364   20993808.1054
      -500.238        -389.796
  -3094876.393 8  -2389519.52546  23401746.010    23401745.7384   23401758.2404
      3109.244        2422.787
  -3123669.441 9  -2410957.63847  22394288.012    22394287.7314   22394298.1314
      3218.443        2507.878
   -396245.454 8   -303968.98645  24465529.297    24465529.3974   24465543.6174
       609.438         474.887
    887954.051 9    687771.41348  20607168.980    20607168.7984   20607177.4634
     -1188.438        -926.056
 80  4 13 18 36 49.9990000  0  8G01G16G25G22G19G18G04G14            -0.000255620
   -655160.730 9   -505510.17149  20636899.124    20636898.7174   20636907.1104
       552.731         430.699
  -1911340.698 9  -1473287.77648  20692239.097    20692238.5364   20692247.6274
      1679.144        1308.424
   2077688.037 8   1610462.27845  24434797.261    24434797.1224   24434811.4034
     -2209.836       -1721.950
    175852.123 9    138167.75548  20994758.786    20994758.0054   20994767.1794
      -507.374        -395.356
  -3125954.978 8  -2413736.57746  23395831.888    23395831.6074   23395844.1534
      3106.898        2420.959
  -3155845.967 9  -2436030.22947  22388165.025    22388164.7274   22388175.1314
      3217.315        2506.999
   -402309.114 8   -308693.91945  24464375.451    24464375.5144   24464389.7784
       603.622         470.355
    899872.206 9    697058.27248  20609436.932    20609436.7544   20609445.4344
     -1194.781        -930.998
 80  4 13 18 36 59.9990000  0  8G01G16G25G22G19G18G04G14            -0.000259584
   -660674.703 9   -509806.77949  20635849.851    20635849.4564   20635857.8354
       550.412         428.892
  -1928100.739 9  -1486347.54648  20689049.750    20689049.2194   20689058.2984
      1673.227        1303.813
   2099786.236 8   1627681.55745  24439002.460    24439002.3424   24439016.6264
     -2209.449       -1721.649
    180959.554 9    142147.56248  20995730.718    20995729.9374   20995739.1004
      -513.824        -400.382
  -3157014.272 8  -2437938.56946  23389921.418    23389921.1484   23389933.7534
      3105.300        2419.714
  -3188015.871 9  -2461097.68347  22382043.317    22382043.0104   22382053.3554
      3216.991        2506.746
   -408318.353 8   -313376.45645  24463232.000    24463232.0214   24463246.2754
       598.472         466.342
    911850.358 9    706391.88148  20611716.304    20611716.1334   20611724.8164
     -1200.510        -935.462
 80  4 13 18 37  9.9990000  0  8G01G16G25G22G19G18G04G14            -0.000263549
   -666164.234 9   -514084.34449  20634805.243    20634804.8494   20634813.2294
       547.627         426.722
  -1944801.140 9  -1499360.84048  20685871.787    20685871.2314   20685880.3124
      1666.981        1298.946
   2121881.621 8   1644898.64245  24443207.160    24443207.0724   24443221.3324
     -2209.447       -1721.647
    186132.370 9    146178.31548  20996715.096    20996714.3064   20996723.4634
      -520.643        -405.696
  -3188057.115 9  -2462127.75146  23384014.171    23384013.8634   23384026.5434
      3103.407        2418.239
  -3220181.427 9  -2486161.70947  22375922.385    22375922.0814   22375932.4764
      3216.238        2506.159
   -414275.117 8   -318018.09645  24462098.473    24462098.5344   24462112.7514
       592.892         461.994
    923887.411 9    715771.38948  20614006.897    20614006.7194   20614015.4094
     -1206.774        -940.343
 80  4 13 18 37 19.9990000  0  8G01G16G25G22G19G18G04G14            -0.000267514
   -671625.850 9   -518340.15549  20633765.942    20633765.5414   20633773.9244
       544.919         424.612
  -1961439.027 9  -1512325.42248  20682705.694    20682705.1424   20682714.2364
      1660.791        1294.123
   2143977.260 8   1662115.93045  24447411.843    24447411.7824   24447426.1654
     -2209.517       -1721.702
    191373.454 9    150262.26948  20997712.455    20997711.6634   20997720.8324
      -527.435        -410.988
  -3219080.806 9  -2486302.09846  23378110.638    23378110.3424   23378122.8634
      3101.542        2416.786
  -3252339.443 9  -2511219.90447  22369802.934    22369802.6254   22369812.9504
      3215.609        2505.669
   -420175.900 8   -322616.13045  24460975.595    24460975.6834   24460989.9224
       587.307         457.642
    935986.899 9    725199.54748  20616309.380    20616309.1944   20616317.8934
     -1212.928        -945.139
 80  4 13 18 37 29.9990000  0  8G01G16G25G22G19G18G04G14            -0.000271480
   -677062.956 9   -522576.86749  20632731.313    20632730.9064   20632739.2854
       542.095         422.412
  -1978016.667 9  -1525243.05949  20679551.074    20679550.5264   20679559.5944
      1654.328        1289.087
   2166070.856 8   1679331.62645  24451616.215    24451616.1134   24451630.5364
     -2209.639       -1721.797
    196680.828 9    154397.87348  20998722.434    20998721.6394   20998730.8064
      -534.535        -416.521
  -3250088.843 9  -2510464.24846  23372210.076    23372209.7934   23372222.1454
      3099.627        2415.294
  -3284493.341 9  -2536274.85747  22363684.232    22363683.9354   22363694.2844
      3214.776        2505.020
   -426023.694 8   -327172.87945  24459862.808    24459862.8954   24459877.1524
       581.693         453.267
    948145.663 9    734673.89748  20618623.119    20618622.9384   20618631.6424
     -1219.201        -950.027
 80  4 13 18 37 39.9990000  0  8G01G16G25G22G19G18G04G14            -0.000275449
   -682477.445 9   -526795.95449  20631700.976    20631700.5774   20631708.9564
       540.080         420.842
  -1994535.012 9  -1538114.49248  20676407.743    20676407.1744   20676416.2514
      1648.580        1284.608
   2188160.686 8   1696544.40045  24455819.821    24455819.7834   24455834.1554
     -2209.010       -1721.306
    202053.804 9    158584.60048  20999744.893    20999744.0924   20999753.2574
      -540.844        -421.437
  -3281083.226 9  -2534615.69246  23366312.053    23366311.7614   23366324.1044
      3098.450        2414.377
  -3316644.876 9  -2561327.97347  22357565.985    22357565.6964   22357576.0134
      3214.819        2505.054
   -431820.058 7   -331689.54045  24458759.797    24458759.9154   24458774.1024
       576.842         449.487
    960360.896 9    744192.24748  20620947.621    20620947.4374   20620956.1384
     -1224.574        -954.214
 80  4 13 18 37 49.9990000  0  8G01G16G25G22G19G18G04G14            -0.000279417
   -687864.076 9   -530993.33849  20630675.945    20630675.5494   20630683.9284
       537.732         419.012
  -2010988.350 9  -1550935.26648  20673276.763    20673276.2084   20673285.2814
      1642.547        1279.907
   2210252.351 8   1713758.55945  24460023.773    24460023.7464   24460038.1724
     -2208.764       -1721.115
    207497.326 9    162826.29448  21000780.776    21000779.9814   21000789.1424
      -547.408        -426.552
  -3312057.018 8  -2558751.03346  23360417.852    23360417.5624   23360430.0424
      3096.767        2413.065
  -3348788.414 9  -2586374.86747  22351449.281    22351448.9854   22351459.2884
      3214.420        2504.743
   -437559.91117   -336162.18955  24457667.510    24457667.5915   24457681.8255
       571.647         445.439
    972637.181 9    753758.16948  20623283.730    20623283.5484   20623292.2564
     -1230.193        -958.592
 80  4 13 18 37 59.9990000  0  8G01G16G25G22G19G18G04G14            -0.000283388
   -693226.033 9   -535171.49149  20629655.625    20629655.2134   20629663.5934
       534.646         416.607
  -2027379.854 9  -1563707.86548  20670157.571    20670157.0034   20670166.0814
      1635.733        1274.597
   2232342.732 8   1730971.75645  24464227.523    24464227.5274   24464241.9084
     -2209.340       -1721.564
    213007.147 9    167119.65048  21001829.279    21001828.4744   21001837.6354
      -554.634        -432.182
  -3343012.507 9  -2582872.09246  23354527.088    23354526.7654   23354539.4624
      3094.308        2411.149
  -3380927.302 9  -2611418.12447  22345333.432    22345333.1444   22345343.4584
      3213.349        2503.908
   -443246.19518   -340593.10155  24456585.398    24456585.4605   24456599.7165
       565.612         440.737
    984970.951 9    763368.88548  20625630.775    20625630.5944   20625639.3084
     -1236.582        -963.570
 80  4 13 18 38  9.9990000  0  8G01G16G25G22G19G18G04G14            -0.000287357
   -698560.939 9   -539328.56949  20628640.441    20628640.0284   20628648.4074
       531.828         414.411
  -2043707.032 9  -1576430.33748  20667050.607    20667050.0454   20667059.1354
      1629.235        1269.534
   2254434.792 8   1748186.24545  24468431.547    24468431.5824   24468445.9724
     -2209.601       -1721.767
    218585.821 9    171466.65848  21002890.889    21002890.0784   21002899.2404
      -561.650        -437.649
  -3373947.122 9  -2606976.95846  23348640.445    23348640.1254   23348652.8224
      3092.105        2409.432
  -3413059.014 9  -2636455.82747  22339219.005    22339218.6844   22339228.9594
      3212.547        2503.283
   -448876.50418   -344980.41355  24455514.023    24455514.0595   24455528.2865
       559.812         436.217
    997365.046 9    773026.60648  20627989.307    20627989.1294   20627997.8544
     -1242.755        -968.381
